Погода в Леуши

Погода в Леуши : погода сейчас, прогноз погоды и архив. Всё, что Вы хотите узнать о погоде в Леуши!

Хотите узнать прогноз погоды в Леуши? Тогда Вам сюда: Погода в Леуши

Поиск расширенной информации на нашем сайте:

Другие новости

Новости СМИ2

Главная страница сайта

Новости сайта

02.10.2013

Напоминаем, что на нашем новом сайте вы можете получить высокодетализированные прогнозы погоды по пунктам России, СНГ и мира (включающие важные для авиации метеовеличины, такие как направление и скорость ветра, видимость, явления погоды, количество и форма облачности, нижняя и верхняя граница облачности), а также ознакомиться с разнообразными материалами по авиационной метеорологии и подборкой полезных ссылок на эту тему.

Сайт Метеоцентр.Азия посвящён разработке технологий оптимизации авиаметеорологического обслуживания, включая проектирование и перспективное создание нескольких автоматизированных авиаметеорологических систем:
- система выпуска высокодетальных прогностических карт явлений погоды для нижнего воздушного пространства по России и ближнему зарубежью;
- система верификации прогнозов TAF (выпускаемых синоптиками официальных АМСГ РФ и ближнего зарубежья) и AUTOTAF (выпускаемых сайтом Метеоцентр.Азия) - выявление ошибок, онлайн-сопоставление с фактической погодой METAR, автоматическое внесение коррективов в прогнозы при резком отклонении фактической погоды от прогноза, подсчёт оправдываемости прогнозов по элементам и в целом;
- система обработки, анализа и отображения авиаметеорологической информации для применения провайдерами метеорологической информации.


Погода в Леуши - сегодня

Время (UTC), дата Ветер
(°,м/с) 
Видим.   Явления Облачность Т
(°С)
Тd
(°С)
f(%) Тe
(°С)
Pmin
(гПа)
dP
(гПа)
Po
(мм)
O2
(г/м3)
Тmin Tmax R s Состояние
почвы
06 23.02.17 190 (Ю) 20000 м    10/0 средняя, верхняя 
[Ac lent|Cc]
+2.2 -4.7 60 +2  1004.9  0.4  747  299           
09 23.02.17 190 (Ю) 20000 м    10/0 средняя, верхняя 
[Ac lent|Cc]
+2.7 -4.6 59 +2  1005.6  0.7  748  299           
12 23.02.17 180 (Ю) 20000 м    10/3 600 м средняя, верхняя 
[Sc|Ac lent|Ci fib]
+2.3 -4.9 59 +1  1006.2  0.6  748  299           
15 23.02.17 180 (Ю) 20000 м    10/6 600 м верхняя 
[Sc|Ci fib]
+0 -5.9 64 -1  1006.9  0.6  749  302    +3.3       
18 23.02.17 180 (Ю) 20000 м    10/8 600 м средняя 
[Sc|As trans]
-1.9 -7.6 65 -3  1006.5  -0.4  748  304           
21 23.02.17 180 (Ю) 20000 м    10/8 600 м средняя 
[Sc|As trans]
-2.9 -9.3 61 -4  1006.5  748  306           
00 24.02.17 180 (Ю) н/о    н/о 
-3.8 -8.8 68 -5  1007.1  0.6  749  307           
03 24.02.17 180 (Ю) 20000 м    10/10 600 м 
[Sc]
-3.8 -8.2 71 -5  1007.9  0.8  749  307  -4.2      60  равномерный
мокрый или
старый снег
100% 
06 24.02.17 190 (Ю) 10 км  слаб. снег  10/10 600 м 
[Sc]
-2.3 -6.8 71 -2  1009.4  1.5  750  306           
09 24.02.17 160 (Ю) 20000 м  {снег}  10/4 600 м средняя, верхняя 
[Sc|Ac trans|Ci fib]
-0.8 -6.4 66 -2  1010.5  1.2  751  304           
12 24.02.17 160 (Ю) 20000 м  {снег}  10/10 600 м 
[Sc]
-1.3 -5.8 71 -2  1011.5  0.9  752  305           
15 24.02.17 160 (Ю) 20000 м    10/10 600 м 
[Sc]
-2.5 -6.9 72 -2  1012.5  753  307    -0.4  0.0     
18 24.02.17 160 (Ю) 20000 м    10/10 600 м 
[Sc]
-3 -6.8 75 -3  1013.4  0.8  753  308           
21 24.02.17 100 (В) 20000 м    10/10 600 м 
[Sc]
-5.8 -8.1 84 -7  1014  0.5  754  311           
00 25.02.17 130 (ЮВ) 20000 м    10/10 600 м 
[Sc]
-8.8 -10.6 87 -10  1014.2  0.1  754  315           
03 25.02.17 130 (ЮВ) 20000 м    10/10 600 м 
[Sc]
-8.3 -9.8 89 -10  1014.1  0.1  754  314  -9.6      60  равномерный
мокрый или
старый снег
100% 
06 25.02.17 100 (В) 20000 м    10/10 600 м 
[Sc]
-6 -8.7 81 -7  1013.7  -0.4  753  311           
09 25.02.17 100 (В) 20000 м    10/8 300 м средняя, верхняя 
[Frnb|Ac lent|Cc]
-2.6 -7.4 70 -5  1011.9  -1.7  752  307           
12 25.02.17 110 (В) 20000 м    10/1 600 м средняя, верхняя 
[Sc|Ac trans|Ci sp]
-4.1 -7.8 75 -6  1009.6  -2.3  751  308           
15 25.02.17 120 (ЮВ) 20000 м    10/10 600 м 
[Sc]
-4.5 -9.4 69 -6  1007.6  -2  749  308    -2.3       
18 25.02.17 150 (ЮВ) 7{11}  20000 м    10/10 600 м 
[Sc]
-3.9 -9.3 66 -9  1005.2  -2.3  747  306           
21 25.02.17 160 (Ю) 4{10}  4000 м  слаб. снег  10/10 300 м 
[Ns]
-4.8 -6.1 91 -8  1004.1  -1.1  746  307           
00 26.02.17 160 (Ю) 20000 м  в посл. час снег  10/8 600 м верхняя 
[Sc|Ci fib]
-5.2 -6.8 88 -8  1003.2  -0.9  746  307           
03 26.02.17 160 (Ю) 20000 м    10/10 600 м 
[Sc]
-4.9 -6.3 90 -8  1002.4  -0.8  745  306  -5.3    0.8  61  равномерный
сухой снег
100% 
06 26.02.17 140 (ЮВ) 4000 м  слаб. снег  10/10 300 м 
[Ns]
-3.9 -5.2 91 -8  1000.1  -2.3  743  304           
Время (UTC), дата Ветер
(°,м/с) 
Видим.   Явления Облачность Т
(°С)
Тd
(°С)
f(%) Тe
(°С)
Pmin
(гПа)
dP
(гПа)
Po
(мм)
O2
(г/м3)
Тmin Tmax R s Состояние
почвы

Для получения пояснительной информации подведите курсор к названию столбца.

ПОГОДА в Леуши - архив

Всё, что Вы хотите узнать о погоде в Леуши - удобно и подробно!

Выберите нужную дату (начиная с 1 января 2015* года) и нажмите кнопку "Найти".
Будут отображены архивные сводки погоды по пункту Леуши, начиная с указанной даты.


Отображать данные в формате CSV (для использования в таблицах Excel)


Внимание! Наш архив погоды предназначен исключительно для личного некоммерческого использования в познавательных целях. Если Вам необходимы официальные справки о состоянии погоды (для производственных, юридических, коммерческих и т.п. целей), обращайтесь в органы Росгидромета.

*Примечание: данная дата относится к архиву по метеостанциям СССР (Россия, СНГ, Балтия).
Архив по метеостанциям Зарубежной Европы и Азии (кроме Китая) хранится 10 дней, по другим регионам земного шара (Китай, Африка, Америка, Австралия, Океания) - 1 день.

Леуши - район местоположения метеостанции


Название, широта, долгота, высота метеостанции:
Леуши 59.6°ш. 65.7°д. 72 м над ур. моря [Российская Федерация]

Дополнительная информация

В oтличие oт бoльшинства пoгoдных сайтoв мы публикуем пoдрoбную метеoинфoрмацию в детальнoм прoфессиoнальнoм фoрмате.

Характеристики температуры и влажнoсти вoздуха измеряются на высoте 2 м в тени вдали oт зданий и деревьев.
Скoрoсть ветра измеряется на высoте 10 м (на урoвне рoста челoвека скoрoсть ветра ниже в 1.5-2 раза). Если метеoстанция нахoдится в гoрoде или в лесу, тo скoрoсть ветра занижена на 2-4 м/с пo сравнению с oткрытым местoм. Скoрoсть ветра над акватoриями крупных рек и oзёр, а также на вершинах хoлмoв на 2-5 м/с выше, чем в oбычных услoвиях.
Атмoсфернoе давление в разных тoчках местнoсти мoжет значительнo oтличаться oт давления на метеoстанции, в зависимoсти oт услoвий рельефа (при пoдъёме на 10 м давление пoнижается примернo на 1 мм рт.ст.).